Wetbulb
60.80 58.07 58.17 54.51 48.07 47.72 44.02 46.01 48.99 48.11 50.83 53.95 54.20 54.04 54.79 56.44 53.51 52.36 66.75 68.50 68.70 68.41 69.26 69.70 70.02 70.97 71.01 69.86 68.78 67.73 66.57 65.19 64.34 63.69 62.99 62.34 62.11 62.28 62.59 62.53 62.37 62.49 62.95 63.30 63.39 63.49 63.21 62.29 61.84
58.49 57.02 55.78 52.26 43.26 41.85 43.41 47.37 46.92 50.47 53.74 55.32 55.22 55.18 54.64 54.43 60.88 63.98 66.16 68.55 68.82 68.93 68.91 69.17 69.22 70.91 70.67 68.91 67.50 66.36 65.19 63.84 63.14 62.42 61.83 61.70 61.79 61.96 62.09 61.97 61.68 61.88 62.32 62.46 62.66 62.56 62.03 61.45 61.20
59.05 55.47 51.76 48.34 42.32 42.13 43.78 46.73 48.75 52.01 53.46 53.19 53.77 56.17 55.78 56.96 62.41 63.70 67.36 69.00 68.97 69.00 69.61 69.54 69.07 70.24 69.03 67.68 66.57 65.07 63.70 62.70 61.58 61.36 61.70 61.82 61.67 61.34 61.29 61.08 60.84 61.05 61.54 61.98 61.58 61.86 61.09 60.79 60.50
59.56 54.52 49.32 45.01 40.36 44.64 45.26 47.98 49.63 51.52 52.79 53.77 55.49 53.07 58.05 62.13 60.48 65.96 67.73 68.93 68.40 68.54 68.93 68.61 68.84 68.85 67.56 66.55 65.35 63.94 62.45 60.77 60.83 61.07 61.02 60.88 60.65 60.55 60.47 60.12 60.15 60.32 60.83 60.91 61.46 61.17 60.92 60.85 60.44
58.46 53.96 42.61 39.97 41.44 44.14 45.89 47.35 49.24 50.83 52.07 52.66 52.94 51.57 55.01 62.48 66.01 67.05 68.14 68.59 68.06 68.39 69.20 68.71 67.53 67.47 66.08 64.97 63.81 62.26 60.29 60.11 60.40 60.46 60.15 60.04 60.10 59.88 59.48 59.27 60.02 60.20 60.05 60.60 60.53 60.79 61.15 60.80 60.66
52.11 51.10 42.52 40.27 41.59 44.07 46.12 47.44 47.68 50.82 51.73 51.98 52.85 53.14 56.54 63.32 64.83 66.43 68.44 68.33 68.91 67.99 66.24 65.09 62.65 64.24 64.34 63.16 61.42 59.71 59.23 59.55 59.86 59.49 59.27 59.13 59.06 58.77 58.52 58.30 59.16 59.45 59.50 60.04 60.49 61.24 60.71 60.64 60.45
49.99 50.13 41.16 40.62 41.71 42.85 44.92 48.80 48.33 50.53 50.71 50.46 53.54 51.66 57.97 61.21 65.06 66.95 67.99 68.41 68.23 66.98 64.20 63.46 61.74 60.57 60.29 60.49 59.68 58.25 58.35 58.84 58.63 58.35 57.77 57.20 56.93 57.18 57.04 57.01 57.99 58.60 59.18 59.54 60.05 60.27 60.40 60.37 60.03
51.08 47.42 40.64 40.68 39.93 41.37 47.23 47.76 48.56 49.98 48.60 53.30 54.94 52.31 55.52 60.79 64.89 66.08 66.26 65.09 64.29 63.79 63.00 61.35 59.81 59.49 61.08 58.36 56.71 57.16 56.83 57.05 56.76 56.37 55.67 55.00 55.42 55.46 54.87 55.80 56.70 57.94 58.60 58.79 59.59 59.89 59.68 59.37 58.61
53.14 45.85 38.52 40.63 41.30 43.05 47.71 46.56 48.42 50.65 53.37 55.59 56.51 55.15 58.75 62.94 64.39 63.73 63.04 63.03 62.52 61.62 60.92 60.01 59.97 60.49 58.83 56.34 53.91 55.61 55.18 55.12 55.85 56.41 54.80 56.61 56.78 56.54 56.31 54.74 55.31 56.75 57.01 57.84 58.92 59.35 58.93 58.04 58.64
49.67 44.63 41.44 43.25 45.01 44.31 46.09 46.28 45.71 47.31 49.07 50.69 55.15 54.32 56.66 62.23 62.94 62.70 62.74 62.18 61.52 60.45 59.94 58.99 58.39 59.00 56.92 54.31 56.16 56.77 56.67 57.59 57.47 57.25 57.16 56.53 56.28 55.63 55.16 54.63 54.18 55.21 54.99 56.56 58.17 58.55 58.66 58.98 59.42
45.20 45.85 44.91 44.33 45.59 46.57 45.23 45.58 46.42 45.57 44.78 45.46 46.31 48.50 49.52 52.10 52.44 57.84 60.92 61.51 61.73 61.11 60.61 60.04 59.90 57.56 55.75 56.24 56.87 57.20 57.43 57.74 57.40 57.26 56.65 56.15 56.16 56.85 57.37 57.75 57.94 58.53 55.88 59.09 59.56 59.68 59.53 59.29 59.22
42.09 45.88 47.45 47.15 47.00 45.46 43.92 46.39 43.92 44.59 44.00 47.04 48.82 49.40 49.70 48.73 48.57 49.19 50.54 51.50 58.43 61.14 60.66 59.98 58.07 56.17 55.74 56.34 56.42 56.88 57.00 57.03 56.77 56.18 55.88 56.13 56.37 56.78 56.82 57.01 57.65 58.38 58.98 58.91 59.25 59.12 59.26 59.03 58.85
43.37 45.01 46.17 47.59 45.41 44.71 45.86 43.92 43.85 43.76 46.82 48.88 49.45 49.80 49.68 50.16 49.63 50.62 51.52 52.25 52.36 59.93 59.18 59.26 57.27 55.71 55.28 55.59 56.31 56.55 56.43 56.31 55.73 55.43 55.87 56.35 56.23 56.14 56.51 56.68 57.07 57.77 58.74 58.71 58.46 58.71 58.57 58.48 58.12
46.54 46.17 45.41 47.16 45.08 44.43 43.55 42.69 44.25 44.25 47.32 47.59 48.21 48.34 49.02 49.02 49.67 50.96 51.40 52.06 53.41 57.91 55.58 56.30 55.10 54.84 55.35 55.61 56.07 56.16 55.90 55.19 55.05 55.38 55.82 56.37 56.46 55.97 55.58 54.77 55.11 56.12 57.97 58.50 58.32 58.16 58.27 58.26 57.96
46.23 43.47 45.76 45.69 45.21 43.35 46.79 42.55 40.87 43.73 46.25 46.37 46.99 47.71 46.97 46.74 47.98 47.66 50.65 51.30 54.73 52.31 50.83 51.23 53.66 54.82 55.12 55.54 55.84 55.25 54.44 54.60 54.76 55.18 56.04 56.23 56.31 55.42 55.10 54.95 54.98 55.81 57.18 57.93 58.01 57.85 58.35 57.94 57.79
43.09 43.67 38.79 44.74 45.31 44.21 44.23 40.62 41.59 44.14 45.40 45.28 46.04 46.36 45.57 45.26 46.06 47.05 49.41 50.19 50.37 49.83 49.66 50.98 53.02 54.36 54.91 55.52 55.01 54.42 54.46 54.64 54.79 55.33 56.25 56.32 55.92 55.58 55.44 55.23 55.32 56.22 56.47 56.77 56.74 56.78 56.63 56.76 56.89
40.28 36.51 38.53 41.32 46.16 43.54 42.89 41.90 41.80 43.48 44.73 44.37 44.76 44.84 44.57 45.09 45.94 46.97 47.75 48.32 49.52 50.13 50.50 50.86 52.64 53.62 54.83 54.71 54.89 54.74 54.55 54.30 54.80 55.74 56.12 56.07 54.87 55.34 55.29 55.38 55.65 56.26 56.07 55.96 55.30 55.51 56.03 55.42 55.70
37.94 38.21 38.94 39.47 44.19 44.15 42.16 41.56 41.11 42.72 43.78 43.54 43.66 43.53 43.63 43.51 43.26 45.92 45.95 46.68 47.13 48.52 49.42 50.70 52.15 52.99 53.81 54.68 55.05 54.92 54.56 54.46 55.06 54.97 53.35 53.91 54.62 55.27 55.54 55.22 55.50 55.88 55.64 54.88 55.06 55.04 55.92 55.60 55.09
41.69 39.12 39.56 40.77 43.24 41.32 42.62 42.26 40.46 41.74 43.30 43.35 42.84 42.92 42.88 42.49 43.69 45.33 45.95 46.30 46.42 46.91 47.72 49.04 50.63 52.03 54.20 54.09 54.13 53.58 52.88 53.63 54.36 53.94 53.63 53.03 52.96 54.22 54.87 55.23 55.54 55.78 55.01 54.55 55.10 54.85 54.37 54.82 55.28
40.93 38.30 38.47 41.72 42.15 40.10 39.10 40.05 41.06 40.91 41.98 44.02 43.16 42.74 42.21 42.08 42.94 43.26 43.98 45.07 45.74 45.71 47.02 47.28 48.18 50.33 52.04 53.22 53.27 53.67 53.07 52.05 52.20 52.67 50.25 49.89 50.07 51.46 52.38 52.97 53.29 54.32 54.40 54.56 54.37 54.14 53.57 53.82 54.07
39.33 38.15 38.61 38.65 41.31 38.95 38.39 38.37 38.16 40.07 40.82 42.02 43.09 43.71 43.18 42.42 41.51 42.11 41.44 42.44 43.63 42.67 43.62 44.29 45.88 48.04 49.81 52.56 52.79 52.90 53.23 52.17 49.89 48.73 48.26 47.03 47.40 48.97 49.15 48.82 49.96 50.83 51.14 50.17 51.03 50.87 52.04 51.69 53.09
36.41 41.28 41.18 38.69 37.79 33.84 40.01 34.02 37.64 39.64 37.82 39.37 40.79 41.57 41.75 41.13 40.59 40.52 40.85 40.84 41.06 39.73 41.62 43.49 44.37 45.85 46.69 49.95 50.40 50.01 48.89 46.37 45.89 46.30 45.73 45.03 45.09 45.63 45.42 46.02 46.01 46.88 48.03 47.14 48.24 48.42 48.85 48.93 46.41
39.22 41.92 41.01 41.08 38.29 36.99 35.46 33.84 39.66 38.45 36.53 37.74 40.11 41.12 41.71 41.48 40.70 39.20 39.54 38.25 39.35 40.94 40.85 42.42 42.31 43.07 44.01 45.88 46.86 46.82 44.97 44.87 43.94 44.11 43.59 43.71 43.81 43.71 43.90 43.42 43.17 44.25 45.52 44.76 45.26 45.57 45.93 46.32 44.90
42.80 40.50 39.74 39.80 38.29 31.35 36.22 34.49 36.83 35.60 38.10 40.89 40.88 40.84 40.74 39.37 39.08 37.79 38.45 37.91 37.96 40.01 40.88 41.07 40.78 40.26 41.49 42.84 43.74 44.18 43.54 42.80 42.72 42.47 42.79 43.12 43.47 42.67 41.94 41.59 41.38 41.76 42.57 42.62 44.25 44.05 44.51 44.77 42.70
40.98 37.53 31.15 29.89 29.73 28.79 35.18 33.88 37.64 39.38 39.80 41.56 40.80 40.29 40.07 39.69 37.36 36.84 36.99 36.75 36.83 37.56 38.13 38.92 38.86 36.99 38.24 39.09 39.69 40.23 40.24 40.29 39.61 39.91 39.84 40.46 40.20 39.62 38.66 39.44 39.05 38.73 39.18 39.70 40.41 40.10 40.88 41.58 38.99
37.95 37.54 31.81 23.98 25.57 29.88 32.86 29.88 36.63 35.87 36.15 37.90 41.41 40.96 38.88 36.62 36.34 34.58 35.23 35.22 34.67 34.99 35.24 35.68 35.09 34.76 35.57 35.71 35.61 36.37 36.95 36.86 36.60 37.00 37.67 37.78 37.22 37.36 37.42 36.99 37.14 37.17 37.61 37.73 38.09 37.71 38.63 40.01 38.12
38.06 34.30 40.32 32.72 28.98 29.50 33.64 35.15 38.41 33.43 32.68 36.44 37.31 36.18 35.44 34.20 33.73 33.24 33.25 32.81 32.51 32.98 33.53 33.79 33.37 32.61 33.00 33.14 33.34 33.19 34.31 34.12 33.54 34.22 34.94 34.71 35.56 35.33 35.38 35.15 34.55 34.93 35.67 35.77 36.02 34.81 35.08 37.18 36.67
39.95 42.61 33.39 35.33 26.41 24.72 31.58 31.82 34.78 32.91 32.84 32.84 32.86 33.77 34.37 33.73 33.29 32.47 31.55 31.01 31.29 30.86 30.98 31.33 31.43 30.56 31.08 31.59 31.88 31.78 31.55 31.72 32.40 32.79 32.28 32.82 33.59 34.09 33.93 33.55 33.18 32.80 33.47 33.96 33.80 33.04 33.50 33.96 33.10
37.17 36.41 37.36 37.20 35.05 27.98 26.87 33.05 39.03 37.15 36.31 33.38 33.80 34.59 33.81 32.07 31.96 32.30 31.02 30.18 29.73 29.75 29.56 29.13 29.04 28.78 28.58 29.05 29.61 29.55 29.77 30.18 30.61 30.45 30.70 31.02 31.93 32.41 32.21 32.28 32.22 31.57 31.17 31.90 31.45 30.98 31.35 31.22 30.03
40.94 38.34 38.69 32.77 29.57 32.90 32.05 32.66 35.12 34.74 35.43 35.93 34.38 33.74 33.30 32.97 32.45 31.04 29.38 28.59 28.39 28.53 28.27 28.06 28.13 27.82 28.08 28.59 28.51 28.18 28.66 28.84 28.55 28.47 29.00 30.03 29.85 31.02 31.45 31.73 31.49 30.82 29.90 30.01 29.50 28.91 29.31 28.83 27.81
MSLP
1015.28 1014.83 1014.41 1014.13 1013.99 1012.79 1012.03 1012.38 1012.69 1012.48 1012.54 1012.94 1012.95 1012.72 1013.23 1014.14 1014.59 1015.78 1017.11 1017.34 1017.38 1017.65 1018.08 1018.51 1018.90 1019.10 1019.30 1019.48 1019.61 1019.63 1019.83 1020.03 1020.07 1019.99 1019.87 1019.76 1019.68 1019.57 1019.41 1019.29 1019.20 1018.96 1018.65 1018.34 1018.01 1017.70 1017.50 1017.40 1017.34
1015.34 1014.79 1014.76 1014.74 1014.45 1012.89 1012.30 1012.72 1012.52 1012.65 1013.03 1013.37 1013.40 1013.60 1013.87 1015.09 1015.95 1016.65 1016.87 1017.63 1017.53 1017.85 1018.24 1018.51 1019.15 1019.30 1019.43 1019.74 1019.79 1019.93 1020.14 1020.32 1020.27 1020.25 1020.16 1019.99 1019.82 1019.72 1019.56 1019.43 1019.34 1019.15 1018.72 1018.42 1018.14 1017.95 1017.76 1017.65 1017.41
1015.42 1015.60 1016.14 1015.68 1015.05 1013.32 1012.70 1013.05 1012.99 1013.32 1013.56 1013.47 1013.78 1014.42 1015.02 1016.18 1016.73 1017.02 1017.66 1017.70 1017.77 1018.11 1018.44 1018.75 1019.20 1019.47 1019.70 1019.95 1019.99 1020.27 1020.49 1020.65 1020.55 1020.49 1020.42 1020.26 1020.03 1019.91 1019.80 1019.58 1019.43 1019.22 1018.86 1018.49 1018.23 1018.19 1017.94 1017.79 1017.47
1015.44 1017.18 1018.04 1016.72 1015.77 1014.54 1013.97 1013.67 1013.70 1013.58 1013.77 1013.95 1014.03 1015.00 1016.31 1017.61 1017.55 1017.77 1018.07 1017.96 1017.97 1018.46 1018.81 1019.18 1019.55 1019.70 1019.98 1020.02 1020.33 1020.51 1020.80 1020.89 1020.89 1020.74 1020.69 1020.56 1020.24 1020.03 1019.91 1019.80 1019.54 1019.22 1018.93 1018.65 1018.39 1018.27 1017.89 1017.71 1017.43
1016.24 1017.58 1018.63 1017.86 1016.32 1015.21 1014.74 1014.51 1014.31 1013.85 1013.86 1014.10 1014.54 1015.57 1016.82 1018.14 1018.41 1018.35 1018.26 1018.16 1018.45 1018.91 1019.22 1019.63 1020.02 1020.19 1020.32 1020.25 1020.54 1020.86 1021.04 1021.10 1021.11 1021.00 1020.97 1020.82 1020.54 1020.31 1020.08 1019.93 1019.63 1019.30 1019.08 1018.82 1018.65 1018.30 1018.03 1017.71 1017.44
1016.62 1017.87 1018.70 1018.32 1016.95 1015.91 1015.33 1015.18 1014.71 1014.36 1014.44 1014.66 1015.00 1015.84 1017.74 1018.84 1018.83 1018.73 1018.53 1018.59 1018.73 1019.35 1019.88 1020.17 1020.49 1020.66 1020.64 1020.72 1021.05 1021.25 1021.31 1021.32 1021.25 1021.19 1021.21 1021.11 1020.80 1020.56 1020.30 1020.15 1019.92 1019.57 1019.30 1018.96 1018.70 1018.40 1018.26 1017.99 1017.68
1016.54 1017.35 1018.70 1018.59 1017.85 1016.52 1016.03 1015.85 1015.12 1014.93 1014.99 1015.53 1015.92 1016.40 1018.29 1019.19 1019.32 1019.17 1019.02 1018.98 1019.25 1019.82 1020.23 1020.60 1020.89 1021.15 1021.12 1021.31 1021.57 1021.54 1021.63 1021.65 1021.54 1021.59 1021.59 1021.47 1021.07 1020.82 1020.64 1020.36 1020.11 1019.82 1019.60 1019.33 1019.00 1018.69 1018.37 1018.09 1017.83
1017.05 1017.54 1018.93 1019.20 1018.53 1017.10 1016.55 1016.28 1016.09 1015.64 1016.07 1016.79 1017.21 1017.15 1018.29 1019.40 1019.71 1019.71 1019.71 1020.02 1020.31 1020.53 1020.69 1020.98 1021.25 1021.32 1021.19 1021.51 1022.09 1021.88 1021.91 1021.92 1021.79 1021.89 1021.90 1021.69 1021.15 1021.00 1020.84 1020.52 1020.32 1020.04 1019.78 1019.55 1019.23 1018.86 1018.47 1018.04 1017.72
1017.65 1017.91 1019.05 1019.17 1018.72 1017.66 1017.06 1016.74 1016.87 1017.06 1016.99 1017.98 1018.86 1019.11 1019.59 1019.93 1020.09 1020.16 1020.31 1020.49 1020.76 1021.11 1021.27 1021.41 1021.35 1021.42 1021.57 1021.85 1022.30 1022.24 1022.25 1022.05 1021.92 1021.93 1021.98 1021.40 1021.12 1020.89 1020.64 1020.80 1020.61 1020.27 1019.97 1019.68 1019.40 1019.02 1018.60 1018.11 1017.41
1017.97 1018.42 1019.11 1019.21 1018.65 1018.22 1017.84 1017.70 1018.03 1017.89 1018.12 1019.25 1019.92 1020.39 1020.53 1020.43 1020.55 1020.59 1020.58 1020.88 1021.16 1021.44 1021.65 1021.71 1021.67 1021.70 1021.96 1022.12 1022.32 1022.29 1022.21 1021.97 1021.99 1022.00 1021.88 1021.56 1021.33 1021.33 1021.13 1020.79 1020.67 1020.36 1020.04 1019.57 1019.29 1018.95 1018.48 1017.89 1017.36
1018.85 1018.55 1019.07 1019.44 1019.10 1018.55 1018.48 1018.89 1019.47 1019.33 1019.90 1021.19 1021.46 1021.64 1021.64 1021.33 1021.31 1021.34 1021.26 1021.27 1021.36 1021.60 1021.75 1021.71 1021.70 1021.86 1022.19 1022.37 1022.45 1022.40 1022.38 1022.20 1022.14 1022.23 1022.17 1021.86 1021.51 1021.27 1020.95 1020.60 1020.32 1020.07 1019.91 1019.20 1018.83 1018.48 1018.11 1017.91 1017.66
1019.52 1019.36 1019.27 1019.52 1019.25 1018.84 1019.62 1020.07 1020.66 1021.06 1022.07 1022.47 1022.49 1022.48 1022.26 1022.20 1022.25 1022.31 1022.15 1021.94 1021.71 1021.75 1021.78 1021.87 1021.89 1022.03 1022.47 1022.46 1022.53 1022.62 1022.53 1022.47 1022.30 1022.46 1022.44 1022.02 1021.70 1021.54 1021.17 1020.85 1020.51 1020.25 1019.92 1019.62 1019.10 1018.67 1018.36 1017.95 1017.62
1019.84 1019.82 1019.75 1019.68 1019.77 1019.98 1020.38 1021.06 1021.47 1022.39 1022.82 1022.94 1022.95 1022.94 1022.86 1022.77 1022.80 1022.78 1022.69 1022.36 1022.15 1021.98 1022.06 1021.99 1022.13 1022.33 1022.60 1022.80 1022.86 1022.89 1022.83 1022.78 1022.74 1022.71 1022.77 1022.39 1022.03 1021.88 1021.53 1021.22 1020.80 1020.44 1020.18 1019.83 1019.39 1018.99 1018.50 1018.05 1017.72
1020.25 1020.05 1020.09 1020.06 1019.86 1020.07 1020.34 1021.75 1021.97 1023.16 1023.41 1023.29 1023.29 1023.44 1023.63 1023.69 1023.58 1023.36 1023.19 1022.91 1022.52 1022.35 1022.58 1022.38 1022.40 1022.74 1022.78 1022.85 1023.19 1023.14 1023.13 1023.00 1022.97 1023.04 1023.09 1022.93 1022.50 1022.25 1021.93 1021.68 1021.27 1020.85 1020.47 1020.07 1019.69 1019.25 1018.77 1018.32 1017.91
1020.68 1020.59 1020.54 1020.30 1020.28 1020.17 1020.24 1021.58 1022.47 1023.60 1023.72 1023.46 1023.53 1023.89 1024.43 1024.51 1024.41 1024.39 1023.92 1023.61 1023.17 1023.29 1023.28 1023.03 1022.93 1023.02 1023.08 1023.18 1023.30 1023.50 1023.47 1023.25 1023.23 1023.18 1023.25 1023.15 1022.83 1022.63 1022.39 1021.94 1021.61 1021.25 1020.74 1020.19 1019.75 1019.32 1018.85 1018.34 1017.73
1020.82 1021.02 1020.84 1020.43 1020.27 1020.45 1020.64 1021.14 1022.72 1023.54 1023.66 1023.80 1023.99 1024.45 1024.82 1025.06 1025.21 1025.13 1024.65 1024.43 1024.02 1023.99 1023.92 1023.67 1023.41 1023.36 1023.39 1023.51 1023.52 1023.79 1023.71 1023.48 1023.47 1023.36 1023.36 1023.31 1023.18 1023.05 1022.54 1022.20 1021.85 1021.58 1021.02 1020.33 1019.87 1019.52 1019.10 1018.59 1018.04
1020.84 1020.87 1020.82 1020.63 1020.29 1020.23 1020.47 1021.03 1022.70 1023.42 1023.81 1024.01 1024.42 1024.72 1025.21 1025.52 1025.58 1025.35 1025.27 1025.01 1024.79 1024.66 1024.48 1024.23 1023.95 1023.72 1023.71 1023.80 1023.93 1024.18 1023.97 1023.86 1023.80 1023.59 1023.56 1023.59 1023.53 1023.26 1022.79 1022.34 1022.07 1021.66 1021.32 1020.81 1020.29 1019.78 1019.36 1018.88 1018.32
1019.74 1020.32 1020.61 1020.31 1020.24 1020.40 1020.62 1021.24 1022.56 1023.25 1023.90 1024.12 1024.94 1025.11 1025.45 1025.79 1025.90 1025.75 1025.65 1025.44 1025.40 1025.20 1024.99 1024.73 1024.42 1024.21 1024.03 1023.98 1023.99 1024.13 1024.02 1024.08 1024.14 1024.06 1024.42 1024.32 1024.03 1023.61 1023.13 1022.78 1022.38 1022.02 1021.64 1021.27 1020.83 1020.34 1019.79 1019.45 1018.98
1019.39 1019.75 1019.92 1020.40 1020.29 1020.47 1020.51 1021.03 1022.12 1023.15 1023.71 1024.09 1024.64 1025.27 1025.49 1025.96 1026.10 1025.98 1025.95 1025.73 1025.63 1025.60 1025.52 1025.22 1024.91 1024.62 1024.15 1023.97 1023.87 1024.25 1024.30 1024.25 1024.50 1024.82 1024.89 1024.71 1024.54 1024.15 1023.66 1023.16 1022.76 1022.38 1022.08 1021.81 1021.51 1021.07 1020.49 1019.95 1019.47
1019.41 1019.61 1019.88 1020.36 1020.42 1020.71 1020.84 1020.91 1021.98 1022.91 1023.27 1023.66 1024.18 1025.14 1025.39 1025.85 1026.02 1026.20 1026.24 1026.15 1025.86 1025.89 1025.99 1025.94 1025.57 1025.16 1024.68 1024.35 1024.35 1024.57 1024.75 1025.20 1025.33 1025.34 1025.57 1025.50 1025.25 1024.77 1024.33 1023.88 1023.51 1023.00 1022.57 1022.17 1022.03 1021.71 1020.92 1020.62 1020.47
1019.28 1019.41 1019.67 1019.88 1020.48 1021.00 1021.01 1020.68 1021.52 1022.29 1023.10 1023.66 1024.10 1025.01 1025.45 1025.43 1026.06 1026.22 1026.51 1026.61 1026.44 1026.38 1026.50 1026.50 1026.23 1025.84 1025.50 1024.79 1024.63 1024.78 1025.06 1025.26 1025.66 1025.93 1025.97 1026.21 1026.03 1025.68 1025.21 1024.81 1024.40 1023.93 1023.53 1023.20 1022.87 1022.50 1021.92 1021.33 1021.13
1018.82 1019.01 1019.46 1019.83 1020.23 1020.45 1020.78 1019.91 1020.10 1021.16 1022.16 1023.04 1023.63 1024.58 1024.99 1025.34 1025.98 1026.32 1026.61 1026.94 1027.12 1027.18 1027.05 1026.98 1026.90 1026.55 1026.18 1025.54 1025.17 1025.24 1025.51 1025.84 1026.48 1026.60 1026.68 1026.80 1026.69 1026.37 1026.09 1025.59 1025.17 1024.78 1024.46 1024.08 1023.78 1023.37 1022.95 1022.43 1022.49
1018.58 1018.98 1019.24 1019.61 1019.82 1020.10 1020.34 1020.57 1018.98 1020.42 1021.02 1021.67 1022.56 1023.49 1024.28 1025.01 1025.57 1026.16 1026.80 1027.32 1027.53 1027.46 1027.31 1027.46 1027.59 1027.23 1026.77 1026.42 1025.89 1026.10 1026.22 1026.70 1026.97 1027.04 1027.11 1027.02 1027.11 1027.01 1026.73 1026.38 1025.98 1025.51 1025.20 1024.96 1024.54 1024.10 1023.88 1023.69 1023.65
1018.75 1019.19 1019.49 1019.87 1019.81 1019.53 1019.22 1019.63 1018.04 1018.93 1018.82 1019.39 1021.28 1022.57 1023.55 1025.02 1025.40 1026.11 1026.83 1027.74 1027.87 1027.54 1027.62 1028.08 1028.00 1027.64 1027.59 1027.50 1026.92 1026.60 1026.81 1027.16 1027.30 1027.46 1027.47 1027.50 1027.51 1027.44 1027.35 1027.01 1026.79 1026.42 1025.94 1025.58 1025.25 1024.93 1024.74 1024.52 1024.40
1018.85 1018.86 1019.14 1019.52 1019.70 1018.28 1018.39 1018.62 1017.04 1017.63 1018.24 1018.79 1019.67 1021.59 1023.21 1024.65 1025.40 1025.94 1026.75 1027.18 1027.83 1027.76 1028.45 1028.32 1028.07 1028.35 1028.52 1028.24 1027.73 1027.51 1027.75 1027.82 1028.03 1028.10 1028.22 1028.26 1028.29 1028.13 1028.16 1027.81 1027.59 1027.22 1026.99 1026.65 1026.25 1025.93 1025.62 1025.53 1025.39
1018.14 1018.09 1017.81 1017.95 1018.30 1018.04 1018.42 1017.00 1016.33 1017.63 1018.54 1019.52 1019.88 1021.86 1023.30 1024.61 1025.60 1026.28 1026.76 1027.67 1027.89 1028.37 1028.60 1028.43 1028.78 1029.20 1028.96 1028.85 1028.70 1028.53 1028.48 1028.58 1028.80 1029.04 1029.05 1029.03 1029.13 1029.18 1029.14 1028.84 1028.47 1028.15 1027.72 1027.42 1027.07 1027.04 1026.77 1026.57 1026.57
1017.96 1017.67 1017.75 1017.96 1018.67 1017.99 1016.47 1016.31 1016.60 1018.09 1019.04 1019.78 1020.74 1022.34 1023.36 1024.79 1025.86 1026.58 1027.17 1027.91 1028.44 1028.65 1028.58 1028.85 1029.37 1029.43 1029.47 1029.25 1029.25 1029.30 1029.30 1029.39 1029.64 1029.80 1029.83 1029.94 1029.91 1029.86 1029.80 1029.56 1029.31 1028.97 1028.60 1028.29 1027.91 1027.93 1027.98 1027.47 1027.32
1017.31 1017.30 1017.90 1017.83 1017.29 1016.56 1015.41 1015.75 1015.90 1017.12 1018.43 1020.13 1021.29 1022.08 1023.42 1024.87 1025.76 1026.63 1027.50 1028.06 1028.71 1029.06 1029.43 1029.47 1029.60 1029.80 1029.81 1029.65 1029.56 1029.91 1030.06 1030.20 1030.41 1030.49 1030.53 1030.66 1030.66 1030.61 1030.30 1030.16 1030.06 1029.78 1029.55 1029.18 1028.90 1028.92 1028.91 1028.37 1028.45
1017.34 1016.77 1016.75 1016.72 1016.40 1015.82 1015.27 1014.38 1014.77 1016.15 1017.26 1018.72 1020.62 1021.96 1023.30 1024.62 1025.57 1026.58 1027.64 1028.48 1029.02 1029.36 1029.63 1029.44 1029.77 1030.02 1030.07 1030.22 1030.27 1030.38 1030.54 1030.77 1031.05 1031.17 1031.21 1031.29 1031.18 1031.20 1030.96 1030.64 1030.54 1030.47 1030.47 1030.25 1029.87 1029.84 1029.71 1029.37 1029.37
1016.26 1015.64 1015.81 1015.60 1015.97 1015.99 1015.67 1014.44 1015.16 1016.46 1017.55 1018.65 1020.28 1021.86 1023.22 1024.55 1025.63 1026.59 1027.69 1028.39 1028.89 1029.32 1029.48 1029.66 1030.05 1030.23 1030.37 1030.67 1030.83 1030.91 1031.10 1031.22 1031.45 1031.65 1031.74 1031.80 1031.70 1031.67 1031.47 1031.26 1031.01 1031.22 1031.10 1031.01 1030.75 1030.53 1030.43 1030.23 1030.18
Wind_Speed
8 5 2 4 2 3 4 4 1 4 4 1 3 0 6 9 5 5 5 3 10 14 12 12 10 8 11 11 11 15 14 10 10 10 10 11 11 11 12 12 13 13 14 14 14 14 13 14 15
6 5 3 1 1 4 6 2 5 3 7 8 7 4 4 6 5 8 6 6 13 12 10 10 9 9 12 13 14 15 13 10 10 11 12 11 11 11 12 13 13 14 13 14 14 14 14 13 14
10 9 3 2 1 2 4 2 3 4 3 1 4 6 3 5 5 4 4 11 13 11 9 7 10 13 14 13 16 14 12 10 11 11 11 11 11 11 12 13 13 14 14 14 13 14 13 13 13
3 6 4 1 1 1 2 2 0 4 3 1 6 9 6 5 3 4 9 12 12 8 5 13 15 15 14 15 14 14 11 10 11 12 12 12 11 11 13 14 14 13 13 14 15 14 15 14 14
4 3 4 2 1 2 2 3 2 3 3 5 0 5 5 5 4 8 11 11 10 9 12 14 14 14 14 17 15 13 10 10 11 13 12 12 12 12 12 14 14 13 13 14 13 14 15 16 16
4 3 3 4 1 2 2 4 3 1 2 5 6 6 5 3 5 8 11 10 9 11 12 12 12 12 14 16 14 11 10 10 11 12 11 11 11 12 12 13 13 13 13 13 13 15 16 16 15
4 3 4 5 1 5 3 8 1 2 3 7 2 5 5 4 4 8 11 10 10 11 10 9 9 10 14 14 11 11 10 10 11 12 11 10 10 11 12 11 12 12 12 13 14 14 15 16 16
2 4 5 1 1 1 6 5 3 5 7 2 7 5 8 6 5 8 9 10 9 8 9 8 7 6 8 8 9 10 10 9 10 10 10 9 5 8 9 9 12 11 12 13 13 13 14 15 13
1 3 4 8 8 5 8 4 4 4 9 8 8 6 5 8 7 8 8 9 8 7 7 6 6 6 7 6 5 6 7 7 6 5 6 5 7 8 8 7 10 10 10 11 12 13 14 13 7
1 3 6 3 2 2 4 3 5 1 7 10 9 13 11 4 6 7 7 7 7 6 5 5 5 6 6 5 5 5 4 6 6 7 8 7 7 6 6 4 6 5 9 6 11 11 10 9 9
4 3 9 3 2 4 2 5 5 1 8 7 4 8 10 9 9 7 4 3 5 6 5 6 6 6 5 4 3 3 3 4 4 7 8 6 5 5 5 4 5 6 6 6 8 8 7 10 8
4 6 7 6 4 4 4 4 7 12 5 4 4 4 7 9 8 8 6 5 3 5 7 6 7 7 5 4 4 4 4 4 5 6 8 6 5 6 6 5 6 6 6 8 8 6 9 9 9
4 4 4 4 8 10 13 11 8 9 6 5 6 8 9 8 7 6 7 3 3 4 6 7 6 6 5 5 4 4 4 5 5 6 7 6 6 6 6 7 7 6 7 8 9 9 9 9 9
3 7 3 1 7 3 6 4 1 6 3 7 8 9 9 10 10 7 8 6 3 6 7 6 7 6 6 6 6 5 5 5 5 5 6 7 6 7 7 6 6 7 8 8 8 9 9 9 8
4 4 1 1 1 3 9 3 3 3 1 7 8 9 9 10 10 10 9 9 7 8 7 7 8 7 7 7 6 5 5 5 5 5 7 7 7 7 5 5 5 5 6 10 8 10 9 9 8
4 1 8 3 2 3 6 7 3 1 3 5 7 7 8 10 10 10 10 10 10 9 8 8 6 7 7 7 6 5 5 5 5 5 5 8 8 7 5 5 6 6 6 8 9 9 9 9 10
2 4 9 5 3 2 2 7 4 2 3 5 4 6 6 7 9 10 10 10 10 9 8 7 6 7 7 7 6 6 7 6 6 6 7 9 8 8 6 6 6 6 5 6 8 9 9 10 10
9 6 7 10 11 9 9 8 6 4 6 6 4 5 6 6 7 7 9 9 9 9 8 7 6 5 5 5 5 5 6 6 6 8 7 9 8 9 8 6 8 7 5 7 7 9 9 10 11
5 5 7 5 3 7 14 12 9 7 7 8 8 6 6 5 4 6 7 8 8 9 9 8 7 6 3 3 4 5 6 7 7 8 10 11 10 11 10 7 9 8 8 9 10 8 9 9 12
7 3 5 6 3 2 5 12 9 10 8 8 9 8 8 6 5 5 6 7 9 9 9 8 8 8 6 4 5 4 6 6 5 6 9 11 11 11 10 10 8 10 8 11 11 10 7 6 9
6 10 9 4 8 1 2 9 8 8 8 9 9 9 9 9 6 5 5 6 7 9 8 8 8 7 7 6 6 6 6 5 6 6 7 10 12 13 12 12 10 10 9 8 10 11 12 7 8
10 8 11 8 10 4 8 5 8 14 14 14 14 14 12 10 7 6 5 5 6 6 6 6 7 7 7 6 7 8 6 5 4 5 6 7 11 12 13 12 12 11 8 12 9 10 9 10 9
6 6 13 15 10 4 6 6 4 7 14 18 19 17 14 12 11 9 6 5 5 5 6 6 5 7 8 8 7 6 8 6 4 5 6 8 9 13 12 12 11 11 9 10 12 13 13 10 8
6 6 6 3 6 8 14 8 8 9 12 19 19 19 16 14 12 10 7 5 5 6 6 5 6 8 7 6 8 9 9 7 5 6 5 6 7 8 12 12 11 11 11 11 10 12 14 12 12
11 10 3 5 6 6 1 12 12 6 9 9 22 21 19 15 13 12 10 7 5 6 4 5 7 8 6 7 9 10 10 10 9 7 6 7 6 7 11 11 12 10 11 12 11 12 13 14 13
19 17 6 6 5 3 3 9 6 2 1 3 11 17 16 14 11 10 9 7 6 6 6 7 7 6 6 8 9 9 10 7 8 8 7 7 7 8 10 10 11 12 12 12 12 11 10 12 12
11 14 9 1 0 3 5 4 6 4 2 7 13 16 16 13 11 10 9 7 7 6 7 7 8 8 7 9 9 10 10 10 9 9 8 7 7 7 9 11 12 12 13 13 12 11 11 11 12
6 13 8 5 5 7 6 6 10 7 14 11 15 18 16 14 12 10 8 8 6 7 6 8 8 8 8 9 9 8 9 9 9 8 10 9 8 9 10 11 12 12 12 13 12 11 12 12 11
8 8 7 4 9 4 4 4 1 2 11 19 17 16 16 14 13 12 9 9 8 8 8 9 9 9 8 8 8 9 9 9 9 8 8 9 9 9 10 11 11 12 12 12 12 12 12 13 13
17 20 20 11 6 6 9 9 4 2 3 12 15 16 16 15 14 12 12 10 10 10 9 9 8 8 8 8 8 9 9 9 9 9 9 8 9 9 10 10 12 11 12 11 12 12 12 13 13
Wind_Direction
324 350 10 36 248 260 139 130 6 162 164 4 58 107 83 37 5 42 117 91 138 147 138 152 153 135 134 116 92 78 77 59 47 38 33 30 26 21 17 14 10 5 0 354 351 351 351 348 347
15 2 32 67 49 221 129 106 162 91 105 115 95 97 69 74 55 100 131 125 143 141 142 149 147 133 115 99 83 71 66 53 46 34 24 22 24 17 14 12 8 3 3 1 2 1 359 355 350
92 52 31 29 339 216 128 143 104 117 163 171 109 42 51 67 81 73 90 136 139 139 146 138 147 108 99 89 80 72 61 48 43 33 23 19 21 16 12 12 9 1 359 1 2 1 356 353 347
79 42 18 222 215 81 2 42 105 160 120 104 117 81 98 30 9 65 134 138 135 110 137 99 96 98 93 87 80 74 60 50 39 33 21 15 19 21 15 12 7 6 4 2 7 358 359 352 347
66 91 70 35 37 347 314 332 299 210 125 107 261 113 70 55 74 118 135 135 125 107 99 94 84 88 95 83 76 72 63 52 40 32 20 15 18 16 16 14 12 11 11 11 4 0 356 356 351
91 118 107 175 349 332 335 351 298 249 91 95 101 96 73 42 103 116 133 122 114 100 94 88 77 78 81 83 75 73 62 51 43 33 21 14 17 15 15 14 9 9 7 9 0 8 2 355 353
116 146 110 136 164 275 356 335 317 74 94 55 25 86 99 111 108 132 126 115 99 94 93 90 85 91 79 68 72 71 58 50 43 31 20 9 18 16 12 12 8 7 8 3 359 0 356 354 352
115 101 110 184 173 326 6 333 353 23 70 63 340 105 140 130 126 114 107 99 94 89 87 87 84 77 80 83 58 65 60 51 45 32 13 0 2 12 23 1 17 7 8 3 1 358 357 350 347
289 103 140 170 168 298 358 335 50 18 77 59 25 32 70 114 130 116 108 107 101 80 77 79 73 80 85 78 64 73 68 61 44 19 16 343 9 9 6 26 2 4 5 359 357 353 349 333 338
85 134 154 191 71 309 352 31 357 122 95 64 74 24 25 70 132 137 136 124 117 118 102 96 107 89 80 74 60 51 46 43 34 19 7 4 11 21 353 12 350 356 355 348 350 350 329 336 353
344 156 152 180 301 28 9 69 27 38 61 38 349 344 21 43 41 46 65 99 132 136 132 122 104 92 82 77 57 44 34 32 31 23 10 11 17 18 25 18 20 9 5 6 0 356 358 354 351
111 91 150 156 2 73 29 70 75 50 48 359 28 40 51 49 33 13 357 352 19 161 122 119 112 104 89 84 65 52 42 29 34 21 16 19 25 23 24 18 13 11 5 1 360 356 348 351 358
112 116 64 113 107 83 90 65 83 60 49 72 71 61 53 46 35 14 349 351 322 144 131 121 112 99 92 76 69 56 43 39 33 33 31 20 28 21 20 24 10 15 7 4 0 357 352 354 358
92 109 30 5 135 127 101 61 188 47 49 83 74 59 52 44 30 32 20 9 1 105 102 111 100 90 91 82 66 60 45 45 47 49 35 27 25 24 24 24 16 14 12 7 3 359 354 354 357
130 113 175 71 327 124 111 115 63 346 356 89 80 70 54 47 46 39 31 41 57 67 84 84 89 92 87 85 76 58 53 54 54 54 41 32 29 21 4 8 9 360 1 11 7 6 3 359 4
69 53 193 154 216 137 202 177 135 16 205 102 89 80 67 55 51 50 46 54 59 67 65 68 88 90 87 85 77 71 62 62 57 51 41 30 25 3 6 12 14 357 4 9 11 10 5 4 4
120 156 209 206 227 112 178 228 147 133 191 127 99 92 84 76 60 53 52 54 53 55 57 60 68 83 95 93 86 77 69 60 56 54 44 32 19 8 9 16 9 6 1 13 9 13 12 7 3
183 186 201 204 192 207 197 197 170 163 189 149 146 126 104 85 59 56 60 57 55 53 54 57 62 72 104 109 102 90 80 71 58 52 35 25 19 17 15 14 12 3 10 19 8 6 13 15 358
180 191 186 199 195 219 225 226 202 182 190 174 163 161 134 107 86 71 64 67 68 55 50 49 52 50 112 114 112 84 78 79 62 52 38 34 25 18 25 24 22 20 23 21 19 359 8 16 2
191 202 193 173 126 205 201 233 191 194 208 203 177 189 163 149 126 83 66 63 67 61 47 43 39 43 58 83 92 90 87 71 59 56 43 32 27 21 24 19 12 17 19 21 24 17 15 25 15
210 220 193 234 193 7 139 247 212 213 213 201 197 198 186 168 162 126 82 65 66 58 41 35 34 40 44 79 111 115 106 86 54 39 45 33 30 28 27 28 25 26 22 22 20 12 16 14 14
234 212 192 149 171 220 202 267 216 197 203 208 199 198 189 173 164 146 126 87 71 61 51 49 41 41 41 48 83 92 88 89 59 55 49 41 36 32 32 31 32 32 26 33 22 24 28 25 21
211 173 195 208 227 269 192 249 204 190 214 212 206 200 191 182 169 156 137 112 78 79 73 58 58 55 47 53 79 93 93 88 75 69 64 49 44 35 32 33 34 37 34 37 36 36 36 38 31
145 114 112 115 241 251 224 211 230 192 212 215 201 198 185 182 164 150 139 142 117 85 73 81 69 57 52 57 72 82 86 87 87 69 65 52 45 39 35 39 37 37 37 37 37 42 40 41 42
191 194 195 209 205 245 248 209 246 200 216 220 196 191 183 179 169 159 159 141 133 105 116 95 77 63 60 72 69 77 81 78 72 65 61 59 52 43 38 41 41 41 42 45 47 47 47 43 43
200 208 207 230 215 221 146 230 243 18 53 254 185 182 172 171 171 161 153 155 133 136 123 101 98 106 82 78 77 77 78 77 74 68 74 68 62 49 46 49 49 49 48 49 50 47 45 48 44
186 215 242 249 50 270 224 247 236 173 172 163 163 172 175 170 167 161 148 147 152 141 125 124 129 113 103 98 90 80 80 82 84 79 74 72 67 66 60 57 54 50 50 50 52 51 45 45 49
230 168 189 221 243 242 234 254 251 219 208 187 184 185 175 172 166 155 154 149 148 135 142 134 121 115 107 97 93 90 87 86 85 82 78 76 73 68 65 60 55 54 51 50 53 50 47 51 41
174 193 217 248 231 255 293 234 280 289 191 192 193 188 178 171 167 164 161 160 154 155 153 130 127 124 110 105 102 101 93 89 87 83 80 78 76 69 67 65 62 57 53 50 53 55 48 50 45
230 216 209 219 205 251 270 255 154 184 199 193 186 181 176 175 171 165 165 160 162 161 149 139 138 128 119 113 108 101 98 96 93 88 83 81 82 75 71 69 66 60 57 53 53 54 49 47 43